Find MEV-2

NORAD ID: 46113 Int'l Des: 2020-056 Owner: SPLOG Country: US operational
HEOCIRCULARGSOGEO

Live-Position

3D-Globus wird geladen...

Über MEV-2

Beschreibung wird geladen...

Nächste Überflüge

Passes for default location (London). Set your location on the main map for personalized predictions.

Höhenverlauf

Loading altitude history...

Zweizeiliger Elementsatz

1 46113U 20056B 26105.22821340 .00000000 00000-0 00000-0 0 9994
2 46113 0.0109 94.7032 0001655 344.6132 205.2371 1.00269686 79961
Epoch: 15. Apr. 2026 • Age: 6 hours

Aktueller Status

Höhe 35784.3 km
Geschwindigkeit 3.07 km/s
Subsatellitenpunkt -0.00°S, 1.02°W
Startdatum 15. Aug. 2020
Alter 5.6 years
Typ other

Technische Details

Klassifizierung Payload
Masse 2326.00 kg
Trockenmasse 2000.00 kg
Gesamtmasse 2326.00 kg
Länge 5.00 m
Durchmesser 2.50 m
Spannweite 25.00 m
Form Box + 2 pan
Hersteller NGISD
Bus-Typ Geostar-3
Phasenstatus Docked
Besitzer/Staat SPLOG/US

Most Searched